Time,TemperatureF,DewpointF,PressureIn,WindDirection,WindDirectionDegrees,WindSpeedMPH,WindSpeedGustMPH,Humidity,HourlyPrecipIn,Conditions,Clouds,dailyrainin,SoftwareType,DateUTC
2013-02-18 00:01:00,23.4,14.4,30.17,SSE,155,3.0,9.0,68,0.00,,---,0.00,VWS V14.01,2013-02-18 05:01:00,
2013-02-18 00:16:00,23.3,14.3,30.18,SSE,159,5.0,7.0,68,0.00,,---,0.00,VWS V14.01,2013-02-18 05:16:00,
2013-02-18 00:31:00,23.5,14.5,30.17,SSE,154,3.0,10.0,68,0.00,,---,0.00,VWS V14.01,2013-02-18 05:31:00,
2013-02-18 00:46:00,23.5,14.5,30.16,SE,130,3.0,10.0,68,0.00,,---,0.00,VWS V14.01,2013-02-18 05:46:00,
2013-02-18 01:01:00,23.5,14.2,30.17,SE,138,2.0,7.0,67,0.00,,---,0.00,VWS V14.01,2013-02-18 06:01:00,
2013-02-18 01:16:00,23.8,14.1,30.16,SE,135,6.0,9.0,66,0.00,,---,0.00,VWS V14.01,2013-02-18 06:16:00,
2013-02-18 01:31:00,24.0,14.0,30.15,SE,138,3.0,9.0,65,0.00,,---,0.00,VWS V14.01,2013-02-18 06:31:00,
2013-02-18 01:46:00,24.0,14.0,30.15,SE,140,5.0,8.0,65,0.00,,---,0.00,VWS V14.01,2013-02-18 06:46:00,
2013-02-18 02:01:00,24.3,13.9,30.14,SE,142,3.0,9.0,64,0.00,,---,0.00,VWS V14.01,2013-02-18 07:01:00,
2013-02-18 02:16:00,24.2,14.1,30.14,SE,142,4.0,9.0,65,0.00,,---,0.00,VWS V14.01,2013-02-18 07:16:00,
2013-02-18 02:31:00,24.3,14.2,30.13,SE,139,3.0,13.0,65,0.00,,---,0.00,VWS V14.01,2013-02-18 07:31:00,
2013-02-18 02:46:00,24.2,14.5,30.13,SE,124,5.0,10.0,66,0.00,,---,0.00,VWS V14.01,2013-02-18 07:46:00,
2013-02-18 03:01:00,25.1,15.0,30.11,SSE,147,9.0,11.0,65,0.00,,---,0.00,VWS V14.01,2013-02-18 08:01:00,
2013-02-18 03:16:00,25.1,15.0,30.11,SE,137,1.0,13.0,65,0.00,,---,0.00,VWS V14.01,2013-02-18 08:16:00,
2013-02-18 03:31:00,25.4,14.9,30.10,SE,139,4.0,14.0,64,0.00,,---,0.00,VWS V14.01,2013-02-18 08:31:00,
2013-02-18 03:46:00,25.5,15.0,30.09,SE,139,4.0,12.0,64,0.00,,---,0.00,VWS V14.01,2013-02-18 08:46:00,
2013-02-18 04:01:00,26.2,15.3,30.08,ESE,117,3.0,14.0,63,0.00,,---,0.00,VWS V14.01,2013-02-18 09:01:00,
2013-02-18 04:16:00,26.1,15.2,30.07,SE,136,7.0,12.0,63,0.00,,---,0.00,VWS V14.01,2013-02-18 09:16:00,
2013-02-18 04:31:00,26.2,15.7,30.06,SSE,157,6.0,13.0,64,0.00,,---,0.00,VWS V14.01,2013-02-18 09:31:00,
2013-02-18 04:46:00,26.9,16.0,30.05,SE,142,5.0,15.0,63,0.00,,---,0.00,VWS V14.01,2013-02-18 09:46:00,
2013-02-18 05:01:00,26.8,15.9,30.04,SE,132,7.0,15.0,63,0.00,,---,0.00,VWS V14.01,2013-02-18 10:01:00,
2013-02-18 05:16:00,26.8,15.9,30.03,SSE,149,5.0,11.0,63,0.00,,---,0.00,VWS V14.01,2013-02-18 10:16:00,
2013-02-18 05:31:00,26.8,15.9,30.02,ESE,109,7.0,15.0,63,0.00,,---,0.00,VWS V14.01,2013-02-18 10:31:00,
2013-02-18 05:46:00,27.2,16.3,30.01,SSW,201,7.0,14.0,63,0.00,,---,0.00,VWS V14.01,2013-02-18 10:46:00,
2013-02-18 06:01:00,27.8,16.1,30.00,ESE,113,7.0,16.0,61,0.00,,---,0.00,VWS V14.01,2013-02-18 11:01:00,
2013-02-18 06:16:00,27.3,16.0,29.99,SSE,157,4.0,18.0,62,0.00,,---,0.00,VWS V14.01,2013-02-18 11:16:00,
2013-02-18 06:46:00,27.6,16.7,29.98,SE,133,6.0,13.0,63,0.00,,---,0.00,VWS V14.01,2013-02-18 11:46:00,
2013-02-18 07:01:00,27.8,16.9,29.97,SSW,202,7.0,13.0,63,0.00,,---,0.00,VWS V14.01,2013-02-18 12:01:00,
2013-02-18 07:16:00,27.9,17.3,29.97,SE,146,11.0,14.0,64,0.00,,---,0.00,VWS V14.01,2013-02-18 12:16:00,
2013-02-18 07:31:00,28.0,17.4,29.96,SE,143,6.0,16.0,64,0.00,,---,0.00,VWS V14.01,2013-02-18 12:31:00,
2013-02-18 07:46:00,27.8,17.6,29.95,South,190,8.0,13.0,65,0.00,,---,0.00,VWS V14.01,2013-02-18 12:46:00,
2013-02-18 08:01:00,28.2,18.3,29.95,South,177,8.0,13.0,66,0.00,,---,0.00,VWS V14.01,2013-02-18 13:01:00,
2013-02-18 08:16:00,28.9,18.6,29.94,SE,146,8.0,14.0,65,0.00,,---,0.00,VWS V14.01,2013-02-18 13:16:00,
2013-02-18 08:31:00,29.3,19.0,29.94,SE,139,3.0,16.0,65,0.00,,---,0.00,VWS V14.01,2013-02-18 13:31:00,
2013-02-18 08:46:00,30.1,19.8,29.93,SSE,159,5.0,20.0,65,0.00,,---,0.00,VWS V14.01,2013-02-18 13:46:00,
2013-02-18 09:01:00,30.8,20.4,29.93,SSW,196,4.0,11.0,65,0.00,,---,0.00,VWS V14.01,2013-02-18 14:01:00,
2013-02-18 09:16:00,31.5,20.7,29.92,SSW,199,6.0,15.0,64,0.00,,---,0.00,VWS V14.01,2013-02-18 14:16:00,
2013-02-18 09:31:00,32.8,22.0,29.92,South,175,7.0,14.0,64,0.00,,---,0.00,VWS V14.01,2013-02-18 14:31:00,
2013-02-18 09:46:00,33.7,22.8,29.91,SE,145,5.0,15.0,64,0.00,,---,0.00,VWS V14.01,2013-02-18 14:46:00,
2013-02-18 10:01:00,35.2,24.3,29.90,South,189,6.0,16.0,64,0.00,,---,0.00,VWS V14.01,2013-02-18 15:01:00,
2013-02-18 10:16:00,37.0,25.6,29.90,SSW,198,6.0,17.0,63,0.00,,---,0.00,VWS V14.01,2013-02-18 15:16:00,
2013-02-18 10:31:00,38.3,26.8,29.89,SW,219,5.0,18.0,63,0.00,,---,0.00,VWS V14.01,2013-02-18 15:31:00,
2013-02-18 10:46:00,39.1,27.6,29.88,South,182,7.0,15.0,63,0.00,,---,0.00,VWS V14.01,2013-02-18 15:46:00,
2013-02-18 11:01:00,39.7,28.1,29.87,SSW,194,13.0,19.0,63,0.00,,---,0.00,VWS V14.01,2013-02-18 16:01:00,
2013-02-18 11:16:00,40.5,28.9,29.87,SSW,200,5.0,19.0,63,0.00,,---,0.00,VWS V14.01,2013-02-18 16:16:00,
2013-02-18 11:31:00,41.7,30.0,29.86,South,190,2.0,18.0,63,0.00,,---,0.00,VWS V14.01,2013-02-18 16:31:00,
2013-02-18 11:46:00,43.0,30.9,29.86,SSW,192,12.0,14.0,62,0.00,,---,0.00,VWS V14.01,2013-02-18 16:46:00,
2013-02-18 12:01:00,44.2,32.0,29.85,SSE,157,8.0,18.0,62,0.01,,---,0.01,VWS V14.01,2013-02-18 17:01:00,
2013-02-18 12:16:00,44.9,32.7,29.84,SSW,205,8.0,16.0,62,0.01,,---,0.01,VWS V14.01,2013-02-18 17:16:00,
2013-02-18 12:31:00,45.9,33.2,29.84,SW,228,5.0,15.0,61,0.01,,---,0.01,VWS V14.01,2013-02-18 17:31:00,
2013-02-18 12:46:00,46.6,33.9,29.83,South,180,9.0,16.0,61,0.01,,---,0.01,VWS V14.01,2013-02-18 17:46:00,
2013-02-18 13:01:00,47.3,34.5,29.82,SSW,199,6.0,19.0,61,0.01,,---,0.01,VWS V14.01,2013-02-18 18:01:00,
2013-02-18 13:16:00,48.0,35.2,29.81,South,190,12.0,18.0,61,0.00,,---,0.01,VWS V14.01,2013-02-18 18:16:00,
2013-02-18 13:31:00,48.6,35.8,29.80,SSW,194,8.0,19.0,61,0.00,,---,0.01,VWS V14.01,2013-02-18 18:31:00,
2013-02-18 13:46:00,49.1,36.7,29.78,South,178,11.0,17.0,62,0.00,,---,0.01,VWS V14.01,2013-02-18 18:46:00,
2013-02-18 14:01:00,49.7,36.8,29.78,SSW,192,7.0,16.0,61,0.00,,---,0.01,VWS V14.01,2013-02-18 19:01:00,
2013-02-18 14:16:00,50.5,38.0,29.77,South,180,4.0,17.0,62,0.00,,---,0.01,VWS V14.01,2013-02-18 19:16:00,
2013-02-18 14:31:00,50.9,38.4,29.76,SSW,201,7.0,19.0,62,0.00,,---,0.01,VWS V14.01,2013-02-18 19:31:00,
2013-02-18 14:46:00,50.9,38.8,29.76,SSW,194,6.0,17.0,63,0.00,,---,0.01,VWS V14.01,2013-02-18 19:46:00,
2013-02-18 15:01:00,50.4,39.1,29.76,SSW,200,1.0,15.0,65,0.00,,---,0.01,VWS V14.01,2013-02-18 20:01:00,
2013-02-18 15:16:00,50.4,40.2,29.74,South,191,8.0,27.0,68,0.00,,---,0.01,VWS V14.01,2013-02-18 20:16:00,
2013-02-18 15:31:00,50.1,40.7,29.74,SSW,197,8.0,19.0,70,0.00,,---,0.01,VWS V14.01,2013-02-18 20:31:00,
2013-02-18 15:46:00,50.0,41.3,29.73,SSW,207,8.0,15.0,72,0.00,,---,0.01,VWS V14.01,2013-02-18 20:46:00,
2013-02-18 16:01:00,49.8,41.2,29.72,South,175,7.0,15.0,72,0.00,,---,0.01,VWS V14.01,2013-02-18 21:01:00,
2013-02-18 16:16:00,49.3,41.0,29.72,SSW,195,7.0,12.0,73,0.00,,---,0.01,VWS V14.01,2013-02-18 21:16:00,
2013-02-18 16:31:00,48.8,41.2,29.71,South,179,11.0,12.0,75,0.00,,---,0.01,VWS V14.01,2013-02-18 21:31:00,
2013-02-18 16:46:00,48.5,41.3,29.71,SSW,210,7.0,16.0,76,0.00,,---,0.01,VWS V14.01,2013-02-18 21:46:00,
2013-02-18 17:01:00,48.5,41.6,29.70,SSE,164,9.0,16.0,77,0.00,,---,0.01,VWS V14.01,2013-02-18 22:01:00,
2013-02-18 17:16:00,48.4,41.9,29.70,SSE,161,4.0,13.0,78,0.00,,---,0.01,VWS V14.01,2013-02-18 22:16:00,
2013-02-18 17:31:00,47.7,42.5,29.69,South,169,7.0,14.0,82,0.01,,---,0.02,VWS V14.01,2013-02-18 22:31:00,
2013-02-18 17:46:00,47.1,43.1,29.69,South,171,9.0,19.0,86,0.03,,---,0.04,VWS V14.01,2013-02-18 22:46:00,
2013-02-18 18:01:00,46.5,43.4,29.68,SSW,195,7.0,13.0,89,0.04,,---,0.05,VWS V14.01,2013-02-18 23:01:00,
2013-02-18 18:16:00,46.4,43.6,29.67,SSE,165,5.0,14.0,90,0.06,,---,0.07,VWS V14.01,2013-02-18 23:16:00,
2013-02-18 18:31:00,46.6,43.5,29.67,SSW,197,9.0,18.0,89,0.07,,---,0.08,VWS V14.01,2013-02-18 23:31:00,
2013-02-18 18:46:00,46.7,43.6,29.67,SSW,193,7.0,16.0,89,0.07,,---,0.09,VWS V14.01,2013-02-18 23:46:00,
2013-02-18 19:01:00,46.8,43.4,29.66,SE,126,5.0,16.0,88,0.05,,---,0.09,VWS V14.01,2013-02-19 00:01:00,
2013-02-18 19:16:00,47.2,42.3,29.65,SSW,197,6.0,20.0,83,0.04,,---,0.09,VWS V14.01,2013-02-19 00:16:00,
2013-02-18 19:31:00,47.1,41.9,29.64,South,181,7.0,19.0,82,0.02,,---,0.09,VWS V14.01,2013-02-19 00:31:00,
2013-02-18 19:46:00,47.0,41.5,29.63,SSW,192,11.0,21.0,81,0.01,,---,0.09,VWS V14.01,2013-02-19 00:46:00,
2013-02-18 20:01:00,46.9,40.7,29.63,SSW,193,6.0,18.0,79,0.00,,---,0.09,VWS V14.01,2013-02-19 01:01:00,
2013-02-18 20:16:00,46.4,40.6,29.62,South,183,15.0,18.0,80,0.00,,---,0.09,VWS V14.01,2013-02-19 01:16:00,
2013-02-18 20:31:00,45.4,40.5,29.61,SSW,202,5.0,21.0,83,0.01,,---,0.10,VWS V14.01,2013-02-19 01:31:00,
2013-02-18 20:46:00,45.8,40.0,29.60,South,190,18.0,22.0,80,0.01,,---,0.10,VWS V14.01,2013-02-19 01:46:00,
2013-02-18 21:01:00,45.4,40.2,29.59,South,171,7.0,21.0,82,0.02,,---,0.11,VWS V14.01,2013-02-19 02:01:00,
2013-02-18 21:16:00,45.4,40.5,29.58,SSW,211,5.0,30.0,83,0.03,,---,0.12,VWS V14.01,2013-02-19 02:16:00,
2013-02-18 21:31:00,44.5,40.6,29.57,SSW,197,11.0,21.0,86,0.05,,---,0.14,VWS V14.01,2013-02-19 02:31:00,
2013-02-18 21:46:00,44.1,41.1,29.57,SSE,160,5.0,26.0,89,0.08,,---,0.18,VWS V14.01,2013-02-19 02:46:00,
2013-02-18 22:16:00,44.0,41.3,29.53,SSW,195,9.0,26.0,90,0.09,,---,0.20,VWS V14.01,2013-02-19 03:16:00,
2013-02-18 22:31:00,43.9,41.2,29.53,SSW,192,12.0,25.0,90,0.09,,---,0.21,VWS V14.01,2013-02-19 03:31:00,
2013-02-18 22:46:00,44.2,41.2,29.52,SSW,205,6.0,24.0,89,0.08,,---,0.22,VWS V14.01,2013-02-19 03:46:00,
2013-02-18 23:01:00,44.1,41.4,29.50,SSW,192,9.0,27.0,90,0.06,,---,0.24,VWS V14.01,2013-02-19 04:01:00,
2013-02-18 23:16:00,43.9,41.5,29.49,East,94,10.0,25.0,91,0.07,,---,0.26,VWS V14.01,2013-02-19 04:16:00,
2013-02-18 23:31:00,43.9,41.5,29.49,SSE,159,13.0,27.0,91,0.07,,---,0.27,VWS V14.01,2013-02-19 04:31:00,
2013-02-18 23:46:00,43.9,41.5,29.49,South,173,21.0,29.0,91,0.07,,---,0.28,VWS V14.01,2013-02-19 04:46:00,